Dallas, TX

4:37 AM CST on February 22, 2017 (GMT -0600)
Dallas-Fort Worth International

Weather History for KDFW - July, 2013

Change the Weather History Date:

Wednesday, July 17, 2013

  Actual Average Record
Temperature  
Mean Temperature 82 °F 86 °F  
Max Temperature 92 °F 96 °F 109 °F (1980)
Min Temperature 71 °F 75 °F 65 °F (1900)
Degree Days  
Heating Degree Days 0 0  
Month to date heating degree days 0 0  
Since 1 June heating degree days 0 0  
Since 1 July heating degree days 0 0  
Cooling Degree Days 17 21  
Month to date cooling degree days 315 336  
Year to date cooling degree days 1242 1249  
Since 1 June cooling degree days 853 827  
Growing Degree Days 31 (Base 50)    
Moisture  
Dew Point 70 °F    
Average Humidity 70    
Maximum Humidity 93    
Minimum Humidity 47    
Precipitation  
Precipitation 0.08 in 0.06 in 2.66 in (1911)
Month to date precipitation 1.71 1.39  
Year to date precipitation 17.01 21.43  
Sea Level Pressure  
Sea Level Pressure 30.17 in    
Wind  
Wind Speed 6 mph (ESE)    
Max Wind Speed 24 mph    
Max Gust Speed 33 mph    
Visibility 10 miles    
Events Rain , Thunderstorm    
T = Trace of Precipitation, MM = Missing Value Source: NWS Daily Summary

Daily Weather History Graph

Daily Weather History Graph

Search for Another Location

Airport or City:

Trip Planner

Search our weather history database for the weather conditions in past years. The results will help you decide how hot, cold, wet, or windy it might be!

Date:

Astronomy

Jul. 17, 2013 Rise Set
Actual Time 6:32 AM CDT 8:36 PM CDT
Civil Twilight 6:04 AM CDT 9:04 PM CDT
Nautical Twilight 5:30 AM CDT 9:38 PM CDT
Astronomical Twilight 4:53 AM CDT 10:14 PM CDT
Moon 3:30 PM CDT (7/17) 1:33 AM CDT (7/17)
Length of Visible Light 15h 00m
Length of Day
14h 04m
Waxing Gibbous, 67% of the Moon is Illuminated
Jul 17
Waxing Gibbous
Jul 22
Full
Jul 29
Last Quarter
Aug 6
New
Aug 14
First Quarter

Hourly Weather History & Observations

Time (CDT) Temp. Heat Index Dew Point Humidity Pressure Visibility Wind Dir Wind Speed Gust Speed Precip Events Conditions
12:31 AM 72.0 °F - 69.1 °F 91% 30.20 in 8.0 mi ESE 15.0 mph - 0.05 in Rain Light Rain
12:53 AM 72.0 °F - 69.1 °F 91% 30.18 in 6.0 mi East 6.9 mph - 0.12 in Rain Rain
1:53 AM 71.1 °F - 69.1 °F 93% 30.16 in 10.0 mi Calm Calm - 0.07 in Rain Light Rain
2:53 AM 72.0 °F - 70.0 °F 93% 30.14 in 10.0 mi North 5.8 mph - 0.01 in   Mostly Cloudy
3:53 AM 72.0 °F - 70.0 °F 93% 30.15 in 10.0 mi Calm Calm - 0.01 in   Mostly Cloudy
4:53 AM 72.0 °F - 70.0 °F 93% 30.16 in 10.0 mi NE 3.5 mph - N/A   Mostly Cloudy
5:53 AM 73.0 °F - 71.1 °F 93% 30.16 in 10.0 mi NE 3.5 mph - N/A   Mostly Cloudy
6:53 AM 73.0 °F - 70.0 °F 90% 30.18 in 10.0 mi NE 5.8 mph - N/A   Mostly Cloudy
7:53 AM 73.9 °F - 71.1 °F 91% 30.19 in 10.0 mi NE 5.8 mph - N/A   Mostly Cloudy
8:53 AM 77.0 °F - 72.0 °F 84% 30.21 in 10.0 mi ENE 5.8 mph - N/A   Overcast
9:48 AM 78.8 °F - 71.6 °F 78% 30.23 in 10.0 mi East 4.6 mph - N/A   Overcast
9:53 AM 79.0 °F - 72.0 °F 79% 30.21 in 10.0 mi East 4.6 mph - N/A   Overcast
10:08 AM 79.0 °F - 72.0 °F 79% 30.23 in 10.0 mi East 5.8 mph - 0.00 in Rain Light Rain
10:53 AM 81.0 °F 85.2 °F 72.0 °F 74% 30.21 in 10.0 mi East 8.1 mph - 0.00 in   Overcast
11:53 AM 84.0 °F 89.6 °F 72.0 °F 67% 30.21 in 10.0 mi East 8.1 mph 17.3 mph N/A   Mostly Cloudy
12:53 PM 84.9 °F 89.4 °F 70.0 °F 61% 30.19 in 10.0 mi East 10.4 mph - N/A   Mostly Cloudy
1:53 PM 87.1 °F 90.6 °F 68.0 °F 53% 30.17 in 10.0 mi SE 8.1 mph - N/A   Mostly Cloudy
2:53 PM 89.1 °F 94.1 °F 70.0 °F 53% 30.15 in 10.0 mi East 13.8 mph 18.4 mph N/A   Mostly Cloudy
3:53 PM 90.0 °F 92.8 °F 66.9 °F 46% 30.13 in 10.0 mi ESE 11.5 mph 20.7 mph N/A   Mostly Cloudy
4:53 PM 88.0 °F 91.4 °F 68.0 °F 51% 30.12 in 10.0 mi East 13.8 mph - N/A   Mostly Cloudy
5:06 PM 88.0 °F 92.1 °F 69.1 °F 53% 30.14 in 10.0 mi East 12.7 mph 23.0 mph N/A Thunderstorm Thunderstorm
5:31 PM 81.0 °F 84.1 °F 69.1 °F 67% 30.15 in 10.0 mi South 15.0 mph - N/A Thunderstorm Thunderstorm
5:53 PM 80.6 °F 84.6 °F 71.6 °F 74% 30.13 in 10.0 mi SSW 6.9 mph - N/A Thunderstorm Thunderstorm
6:13 PM 82.0 °F 87.4 °F 73.0 °F 74% 30.15 in 10.0 mi SSE 6.9 mph - N/A   Mostly Cloudy
6:53 PM 79.0 °F - 68.0 °F 69% 30.14 in 10.0 mi South 16.1 mph - N/A   Mostly Cloudy
7:53 PM 78.1 °F - 66.0 °F 66% 30.14 in 10.0 mi South 3.5 mph - N/A   Mostly Cloudy
8:53 PM 77.0 °F - 68.0 °F 74% 30.15 in 10.0 mi Calm Calm - N/A   Mostly Cloudy
9:53 PM 75.9 °F - 69.1 °F 79% 30.15 in 10.0 mi South 4.6 mph - N/A   Mostly Cloudy
10:53 PM 77.0 °F - 69.1 °F 76% 30.16 in 10.0 mi Calm Calm - N/A   Mostly Cloudy
11:53 PM 77.0 °F - 69.1 °F 76% 30.17 in 10.0 mi Calm Calm - N/A   Mostly Cloudy